SCP
0 0 0 0 0 0 0 0 0 0 0 0 0 0 0 0 0 0 0 0 0 0 0 0 0 0 0 0 0 0 3 2 3 5 5 3 2 2 1 1 1 1 2 1
0 0 0 0 0 0 0 0 0 0 0 0 0 0 0 0 0 -0 0 0 0 0 0 0 0 0 0 0 0 0 1 6 5 4 5 3 2 1 1 1 0 1 2 2
0 0 0 0 0 0 0 0 0 0 0 0 0 0 0 -0 -0 -0 -0 -0 -0 -0 0 0 0 0 0 0 0 0 0 3 6 5 2 1 1 1 1 1 1 1 2 2
0 0 0 0 0 0 0 0 0 0 0 0 0 0 0 0 0 0 0 0 0 0 -0 0 0 0 0 0 0 0 0 1 2 1 2 1 1 1 1 1 1 2 2 2
0 0 0 0 0 0 -0 0 0 0 0 0 0 0 0 0 0 0 0 0 0 -0 -0 0 -0 0 0 0 0 0 0 0 0 0 1 1 1 0 0 1 2 3 3 3
0 0 0 0 0 0 0 0 0 0 0 0 0 0 0 0 0 0 0 0 0 0 0 0 0 0 0 0 0 0 0 0 0 0 0 0 0 0 2 2 3 3 3 3
0 0 0 0 0 0 0 0 -0 0 0 0 0 0 0 0 -0 -0 -0 -0 -0 -0 0 0 0 0 0 0 0 0 0 0 0 0 0 0 0 0 1 3 3 3 3 3
0 0 0 0 0 0 0 0 0 0 0 0 0 0 0 -0 0 -0 -0 -0 -0 -0 -0 0 0 0 0 0 0 0 0 0 0 0 0 0 0 0 1 2 3 3 3 2
0 0 0 0 0 0 0 0 0 0 0 0 0 0 0 0 0 0 -0 -0 -0 -0 -0 0 0 0 0 0 0 0 0 0 0 0 0 1 1 1 2 3 3 2 2 2
0 0 0 0 0 0 0 0 0 0 0 0 0 0 0 0 0 -0 0 0 0 -0 -0 0 0 0 0 0 0 0 0 0 0 0 0 0 1 2 3 3 2 1 1 1
0 0 0 0 0 0 0 0 0 0 0 0 -0 -0 0 0 -0 -0 -0 -0 -0 0 0 0 0 0 0 0 0 0 0 0 0 0 0 1 2 3 3 2 2 1 1 1
0 0 0 0 0 0 0 0 0 0 0 0 0 -0 -0 0 0 -0 -0 -0 -0 -0 0 0 0 0 0 0 1 0 0 0 1 2 2 2 2 3 3 2 1 1 1 1
0 0 0 0 0 0 0 0 0 0 0 0 0 0 0 0 0 -0 -0 -0 -0 0 0 0 0 0 0 0 1 0 0 1 2 3 3 3 3 3 2 2 1 1 1 1
0 0 0 0 0 0 0 0 0 0 0 0 0 0 0 0 0 -0 -0 -0 0 0 0 0 0 0 0 0 2 0 1 2 3 4 4 2 2 1 1 1 1 1 1 0
0 0 0 0 0 0 0 0 -0 0 0 0 -0 0 -0 0 -0 -0 -0 0 -0 0 0 0 0 0 0 -0 0 1 2 3 4 3 2 1 1 1 1 0 0 0 0 0
0 0 0 0 0 0 0 0 0 -0 0 0 0 0 0 0 0 0 -0 -0 0 0 0 0 0 0 -0 -0 0 0 1 2 2 2 1 1 1 0 0 0 0 0 0 0
0 0 0 -0 0 0 0 0 0 0 0 0 0 0 0 0 0 0 -0 -0 -0 0 0 0 0 0 0 -0 -0 -0 0 1 1 1 1 1 0 0 0 0 0 0 0 0
0 0 0 0 0 0 0 0 0 0 0 0 0 0 0 -0 0 0 -0 -0 -0 -0 -0 0 0 0 0 -0 -0 0 0 0 1 1 1 0 0 0 0 0 0 0 0 0
0 0 0 0 0 0 0 0 0 0 0 0 0 0 -0 -0 0 -0 -0 -0 0 -0 -0 0 0 0 0 -0 -0 0 0 0 1 1 0 0 0 0 0 0 0 0 0 0
0 0 0 0 0 0 0 0 0 0 0 0 0 0 -0 0 -0 -0 0 0 0 -0 -0 -0 0 0 0 -0 -0 0 0 0 0 0 0 0 0 0 0 0 0 0 0 0
0 0 0 0 0 0 0 0 0 0 0 0 0 0 0 0 -0 -0 0 0 0 -0 -0 -0 -0 0 0 0 -0 -0 -0 0 0 0 0 0 0 0 0 0 0 0 0 0
0 0 0 0 0 0 0 0 0 0 0 0 0 0 0 0 -0 -0 0 -0 0 -0 -0 -0 -0 -0 0 0 -0 -0 0 0 0 0 0 0 0 0 0 0 0 0 0 0
0 0 0 0 0 0 0 0 0 0 0 0 0 0 -0 0 -0 -0 0 -0 0 -0 0 -0 -0 -0 0 0 0 -0 0 0 0 0 0 0 0 0 0 0 0 0 0 0
0 0 0 -0 0 -0 -0 0 0 0 0 0 0 0 -0 -0 0 0 -0 0 0 0 0 0 -0 0 0 0 0 -0 -0 -0 0 0 0 0 0 0 0 0 0 0 0 0
0 0 -0 0 -0 -0 0 0 0 0 0 0 0 -0 -0 0 -0 -0 -0 0 0 0 0 0 0 -0 -0 0 0 0 0 0 0 0 0 0 0 0 0 0 0 0 0 0
0 -0 -0 -0 -0 -0 0 0 0 0 0 0 -0 -0 -0 -0 0 0 0 0 0 0 -0 -0 -0 -0 -0 0 0 0 0 0 0 0 0 0 0 0 0 -0 -0 -0 -0 0
Wind_Speed_500mb
6 7 11 21 17 20 11 10 8 5 11 8 19 30 29 20 29 30 44 55 63 73 69 79 81 73 75 72 81 55 77 73 75 74 65 65 65 61 58 57 53 52 53 56
13 5 9 12 9 6 11 11 11 12 12 12 15 43 35 14 14 34 45 53 60 68 74 78 75 94 80 79 84 72 80 79 79 77 74 71 68 67 62 55 55 57 55 52
5 15 13 11 6 12 10 10 15 18 22 14 11 36 32 31 26 30 41 51 62 65 73 81 80 81 100 84 79 80 64 87 88 83 78 73 69 69 64 62 61 58 58 51
10 9 7 12 7 8 6 12 17 21 17 8 9 31 23 20 25 25 41 54 61 78 75 81 82 84 89 96 82 73 65 88 97 87 85 78 75 75 68 60 63 60 53 53
17 9 14 6 6 3 11 12 7 17 21 7 9 8 19 16 34 33 34 46 57 59 70 76 80 83 77 84 95 81 73 79 104 95 86 73 68 64 55 57 59 47 55 56
18 12 6 10 6 3 2 6 11 9 4 8 9 11 36 9 24 13 19 45 45 64 67 70 78 87 80 77 86 90 58 80 99 91 81 69 68 63 57 60 55 50 47 57
7 2 5 4 5 11 12 9 9 9 5 10 10 16 26 17 19 6 12 36 59 67 81 77 76 77 83 86 80 81 78 66 85 80 78 73 70 60 59 56 49 48 47 60
3 11 9 3 2 9 9 10 8 8 7 13 25 13 13 4 13 19 23 32 52 72 84 84 72 78 82 88 79 87 84 86 82 87 91 81 72 62 57 55 48 49 50 56
6 7 18 13 8 5 6 8 12 8 12 13 11 15 14 7 11 12 27 35 44 68 80 83 75 69 79 74 77 87 80 84 88 92 88 83 72 68 63 62 53 47 51 52
6 11 7 7 16 7 4 6 6 5 7 9 8 12 15 12 18 25 33 39 56 70 82 68 70 68 61 68 76 88 93 82 91 87 82 74 75 71 69 64 56 50 54 55
5 4 10 9 5 8 9 3 5 4 8 8 8 10 9 12 8 21 29 41 55 62 79 58 73 80 51 41 59 71 64 63 61 59 65 72 68 66 58 62 57 56 50 54
2 4 8 16 29 18 11 12 8 7 7 8 7 20 10 8 12 16 30 36 60 68 71 45 62 99 56 41 32 43 47 46 47 55 56 56 58 52 57 57 55 58 55 51
4 2 8 14 9 8 7 7 11 6 4 16 9 14 3 10 13 16 22 43 62 73 56 27 79 103 69 56 33 39 42 46 44 42 49 52 51 54 55 56 56 56 58 54
16 10 14 12 15 9 27 34 28 18 10 17 24 31 11 20 23 16 23 31 60 59 32 34 89 104 74 39 31 42 45 45 50 56 55 51 50 49 55 58 58 56 57 58
14 12 13 24 32 32 38 41 36 33 33 17 29 14 19 17 22 24 27 26 37 56 45 83 76 69 38 56 39 20 45 48 61 59 52 50 50 52 58 60 56 56 57 53
5 9 5 30 28 32 37 33 30 33 32 10 14 21 10 23 37 34 31 26 37 45 61 64 69 62 64 65 40 17 40 59 59 51 55 58 62 65 63 59 57 55 54 53
10 7 9 33 11 24 20 9 3 5 13 10 14 9 10 14 25 28 44 42 42 52 57 60 68 77 67 61 49 29 40 53 56 59 61 68 65 63 57 56 54 55 53 51
18 6 5 9 8 6 7 5 5 7 20 16 17 19 15 25 40 45 48 48 35 52 63 73 74 79 76 47 22 11 52 25 58 62 68 67 59 56 57 57 56 52 48 43
21 9 5 4 6 14 11 8 8 2 17 18 15 19 23 45 42 49 32 27 65 62 61 64 62 67 67 50 31 26 43 52 65 69 63 55 60 62 56 58 55 51 48 45
14 7 4 2 4 10 10 6 12 7 12 12 15 18 25 31 21 27 47 48 78 74 60 60 61 61 56 58 61 36 46 45 70 69 60 65 57 59 63 59 56 51 45 40
6 3 13 11 9 13 8 13 11 3 12 15 31 40 43 21 37 83 76 68 74 67 59 57 55 57 50 57 40 52 61 63 68 59 65 62 58 55 52 50 50 49 45 42
11 10 7 5 9 13 18 9 10 11 26 32 43 53 60 68 79 87 74 55 77 64 64 50 53 54 45 44 24 47 18 57 60 66 69 64 57 51 47 43 44 41 41 40
5 8 4 11 11 13 24 29 36 51 45 67 38 34 44 61 75 76 68 67 56 62 56 52 51 50 41 36 31 29 19 27 67 71 68 65 58 50 47 44 45 40 43 44
8 11 7 11 8 16 46 50 37 38 43 32 35 32 46 67 69 68 68 62 60 61 56 52 49 44 39 31 12 56 37 65 72 70 68 56 49 53 43 39 37 41 44 45
19 15 10 12 18 37 35 35 63 47 34 40 50 51 57 74 67 53 60 64 63 60 55 46 40 44 40 44 41 16 38 75 71 69 63 54 49 46 44 40 39 35 32 34
9 8 5 11 29 31 37 54 17 27 45 58 53 60 50 57 65 55 58 60 58 57 54 46 44 40 38 43 5 18 46 82 79 74 63 57 45 51 46 44 43 34 28 27
Wind_Direction_500mb
317 107 225 242 214 237 259 247 281 254 265 292 284 280 284 295 308 315 311 308 306 304 303 288 266 263 264 272 263 269 227 218 207 207 215 220 228 237 238 243 251 257 265 267
10 294 276 257 289 321 325 313 302 270 283 294 288 288 289 285 275 298 301 307 311 310 304 306 295 266 263 263 264 259 230 223 209 207 216 228 244 240 242 248 259 268 268 267
181 258 302 328 349 6 1 354 343 321 324 313 295 287 297 296 289 292 298 299 306 303 307 305 307 293 264 253 262 260 247 227 219 221 225 226 232 239 245 250 260 268 268 261
258 261 330 309 343 40 333 340 327 324 331 276 274 282 280 300 303 301 297 292 289 295 301 301 304 305 286 255 257 256 256 235 229 231 225 229 238 241 250 259 268 269 265 259
255 268 294 292 166 129 229 319 292 284 276 280 257 258 277 309 293 292 293 298 308 311 309 301 298 294 297 273 255 254 257 244 231 228 227 230 233 243 257 265 262 254 255 258
240 273 134 186 248 220 325 334 319 300 189 230 197 210 276 251 261 289 314 329 345 335 326 311 302 297 290 285 256 247 247 242 230 227 232 232 239 245 255 255 248 247 251 251
329 352 173 111 336 345 58 44 344 331 349 238 241 269 264 295 325 50 334 328 329 330 327 314 302 292 290 287 272 238 235 229 222 225 235 236 244 249 251 247 247 246 246 238
190 335 23 62 244 240 235 175 166 261 291 303 304 257 256 90 68 324 312 313 329 330 325 318 302 293 285 278 272 240 231 224 225 227 233 239 247 247 248 243 245 244 241 240
7 257 320 295 3 79 262 222 218 242 270 265 242 283 292 319 309 296 290 314 323 328 321 314 312 304 289 260 258 245 226 225 221 225 230 244 243 248 244 243 241 241 236 238
353 294 244 310 325 297 51 290 13 15 289 276 272 283 262 297 295 328 320 329 321 326 316 309 328 328 295 259 237 235 236 225 225 229 231 237 243 244 247 235 236 237 229 227
76 142 284 352 259 285 347 340 65 129 166 220 300 248 227 271 312 296 308 320 323 321 307 305 332 329 328 254 223 211 206 208 210 219 229 237 243 243 234 228 231 230 220 214
157 199 277 261 293 265 170 200 171 133 260 243 257 276 313 185 256 296 316 328 335 322 311 290 331 331 326 291 208 209 212 214 219 228 231 237 235 229 220 220 228 220 212 202
179 304 317 332 357 358 211 222 212 220 142 226 240 265 357 268 268 243 288 341 339 330 337 27 317 323 323 307 282 250 238 231 231 226 220 219 214 213 220 223 212 202 198 196
169 195 191 220 250 243 283 278 274 245 235 250 242 277 288 303 290 255 275 331 348 325 8 5 306 300 306 327 301 266 240 237 228 209 203 209 209 212 204 195 193 199 203 186
157 228 220 246 259 272 274 278 272 259 255 241 275 234 255 261 268 280 273 315 331 316 334 299 303 324 351 351 317 270 232 213 197 192 191 198 194 186 184 191 195 183 174 177
204 257 254 286 271 263 283 282 268 259 264 279 269 274 227 288 304 307 296 310 306 300 296 309 328 0 357 2 342 289 207 189 189 195 196 189 183 180 181 183 176 168 165 168
188 213 272 270 330 307 284 262 142 330 291 265 267 244 269 278 289 306 305 299 298 298 307 324 337 351 355 355 344 292 220 206 190 190 186 174 172 167 168 172 168 167 174 172
223 185 219 288 14 263 253 161 233 237 272 251 290 270 279 285 296 301 297 278 293 319 325 331 340 344 357 355 7 122 222 247 193 178 174 163 162 166 163 162 163 165 166 172
189 135 248 260 204 285 292 192 175 182 284 254 254 279 284 292 306 291 306 305 318 315 321 325 333 338 343 349 360 256 249 245 190 173 166 162 168 165 166 161 164 167 170 175
86 84 188 290 248 252 238 170 167 143 271 216 218 258 279 299 292 286 300 314 320 320 315 320 324 328 343 351 338 275 258 219 180 163 168 166 168 166 164 168 174 172 176 179
170 197 227 231 237 275 220 157 181 76 262 194 217 255 263 266 261 287 297 302 314 314 309 313 319 315 334 351 341 277 268 185 167 168 169 162 158 159 165 172 174 174 180 183
193 182 210 220 218 273 156 152 195 217 291 267 281 275 266 275 282 284 290 307 310 306 303 301 308 311 327 352 338 231 229 159 155 159 159 159 157 156 162 165 166 176 184 188
284 180 233 215 229 243 223 235 274 284 278 288 276 289 284 280 281 284 293 305 298 299 299 290 299 309 322 348 311 245 199 190 165 165 163 157 154 161 167 179 178 181 186 186
306 320 250 344 284 333 316 284 281 293 261 281 282 288 293 283 282 287 296 293 293 295 295 297 299 308 319 333 261 226 252 192 170 164 160 159 161 163 169 175 181 181 179 181
270 306 270 259 288 323 315 310 300 295 278 284 296 303 303 287 287 285 287 287 289 290 290 296 303 299 310 321 309 226 168 176 165 164 159 160 160 160 159 164 165 171 177 190
217 232 260 279 291 280 277 292 293 304 302 303 298 296 286 296 300 294 287 285 285 284 287 288 287 286 303 321 250 117 161 166 161 156 155 153 151 155 153 149 147 151 156 168
Wind_Speed_850mb
6 7 11 21 17 20 11 10 8 5 11 8 19 30 29 20 29 30 44 55 63 73 69 79 81 73 75 72 81 55 77 73 75 74 65 65 65 61 58 57 53 52 53 56
13 5 9 12 9 6 11 11 11 12 12 12 15 43 35 14 14 34 45 53 60 68 74 78 75 94 80 79 84 72 80 79 79 77 74 71 68 67 62 55 55 57 55 52
5 15 13 11 6 12 10 10 15 18 22 14 11 36 32 31 26 30 41 51 62 65 73 81 80 81 100 84 79 80 64 87 88 83 78 73 69 69 64 62 61 58 58 51
10 9 7 12 7 8 6 12 17 21 17 8 9 31 23 20 25 25 41 54 61 78 75 81 82 84 89 96 82 73 65 88 97 87 85 78 75 75 68 60 63 60 53 53
17 9 14 6 6 3 11 12 7 17 21 7 9 8 19 16 34 33 34 46 57 59 70 76 80 83 77 84 95 81 73 79 104 95 86 73 68 64 55 57 59 47 55 56
18 12 6 10 6 3 2 6 11 9 4 8 9 11 36 9 24 13 19 45 45 64 67 70 78 87 80 77 86 90 58 80 99 91 81 69 68 63 57 60 55 50 47 57
7 2 5 4 5 11 12 9 9 9 5 10 10 16 26 17 19 6 12 36 59 67 81 77 76 77 83 86 80 81 78 66 85 80 78 73 70 60 59 56 49 48 47 60
3 11 9 3 2 9 9 10 8 8 7 13 25 13 13 4 13 19 23 32 52 72 84 84 72 78 82 88 79 87 84 86 82 87 91 81 72 62 57 55 48 49 50 56
6 7 18 13 8 5 6 8 12 8 12 13 11 15 14 7 11 12 27 35 44 68 80 83 75 69 79 74 77 87 80 84 88 92 88 83 72 68 63 62 53 47 51 52
6 11 7 7 16 7 4 6 6 5 7 9 8 12 15 12 18 25 33 39 56 70 82 68 70 68 61 68 76 88 93 82 91 87 82 74 75 71 69 64 56 50 54 55
5 4 10 9 5 8 9 3 5 4 8 8 8 10 9 12 8 21 29 41 55 62 79 58 73 80 51 41 59 71 64 63 61 59 65 72 68 66 58 62 57 56 50 54
2 4 8 16 29 18 11 12 8 7 7 8 7 20 10 8 12 16 30 36 60 68 71 45 62 99 56 41 32 43 47 46 47 55 56 56 58 52 57 57 55 58 55 51
4 2 8 14 9 8 7 7 11 6 4 16 9 14 3 10 13 16 22 43 62 73 56 27 79 103 69 56 33 39 42 46 44 42 49 52 51 54 55 56 56 56 58 54
16 10 14 12 15 9 27 34 28 18 10 17 24 31 11 20 23 16 23 31 60 59 32 34 89 104 74 39 31 42 45 45 50 56 55 51 50 49 55 58 58 56 57 58
14 12 13 24 32 32 38 41 36 33 33 17 29 14 19 17 22 24 27 26 37 56 45 83 76 69 38 56 39 20 45 48 61 59 52 50 50 52 58 60 56 56 57 53
5 9 5 30 28 32 37 33 30 33 32 10 14 21 10 23 37 34 31 26 37 45 61 64 69 62 64 65 40 17 40 59 59 51 55 58 62 65 63 59 57 55 54 53
10 7 9 33 11 24 20 9 3 5 13 10 14 9 10 14 25 28 44 42 42 52 57 60 68 77 67 61 49 29 40 53 56 59 61 68 65 63 57 56 54 55 53 51
18 6 5 9 8 6 7 5 5 7 20 16 17 19 15 25 40 45 48 48 35 52 63 73 74 79 76 47 22 11 52 25 58 62 68 67 59 56 57 57 56 52 48 43
21 9 5 4 6 14 11 8 8 2 17 18 15 19 23 45 42 49 32 27 65 62 61 64 62 67 67 50 31 26 43 52 65 69 63 55 60 62 56 58 55 51 48 45
14 7 4 2 4 10 10 6 12 7 12 12 15 18 25 31 21 27 47 48 78 74 60 60 61 61 56 58 61 36 46 45 70 69 60 65 57 59 63 59 56 51 45 40
6 3 13 11 9 13 8 13 11 3 12 15 31 40 43 21 37 83 76 68 74 67 59 57 55 57 50 57 40 52 61 63 68 59 65 62 58 55 52 50 50 49 45 42
11 10 7 5 9 13 18 9 10 11 26 32 43 53 60 68 79 87 74 55 77 64 64 50 53 54 45 44 24 47 18 57 60 66 69 64 57 51 47 43 44 41 41 40
5 8 4 11 11 13 24 29 36 51 45 67 38 34 44 61 75 76 68 67 56 62 56 52 51 50 41 36 31 29 19 27 67 71 68 65 58 50 47 44 45 40 43 44
8 11 7 11 8 16 46 50 37 38 43 32 35 32 46 67 69 68 68 62 60 61 56 52 49 44 39 31 12 56 37 65 72 70 68 56 49 53 43 39 37 41 44 45
19 15 10 12 18 37 35 35 63 47 34 40 50 51 57 74 67 53 60 64 63 60 55 46 40 44 40 44 41 16 38 75 71 69 63 54 49 46 44 40 39 35 32 34
9 8 5 11 29 31 37 54 17 27 45 58 53 60 50 57 65 55 58 60 58 57 54 46 44 40 38 43 5 18 46 82 79 74 63 57 45 51 46 44 43 34 28 27
Wind_Direction_850mb
317 107 225 242 214 237 259 247 281 254 265 292 284 280 284 295 308 315 311 308 306 304 303 288 266 263 264 272 263 269 227 218 207 207 215 220 228 237 238 243 251 257 265 267
10 294 276 257 289 321 325 313 302 270 283 294 288 288 289 285 275 298 301 307 311 310 304 306 295 266 263 263 264 259 230 223 209 207 216 228 244 240 242 248 259 268 268 267
181 258 302 328 349 6 1 354 343 321 324 313 295 287 297 296 289 292 298 299 306 303 307 305 307 293 264 253 262 260 247 227 219 221 225 226 232 239 245 250 260 268 268 261
258 261 330 309 343 40 333 340 327 324 331 276 274 282 280 300 303 301 297 292 289 295 301 301 304 305 286 255 257 256 256 235 229 231 225 229 238 241 250 259 268 269 265 259
255 268 294 292 166 129 229 319 292 284 276 280 257 258 277 309 293 292 293 298 308 311 309 301 298 294 297 273 255 254 257 244 231 228 227 230 233 243 257 265 262 254 255 258
240 273 134 186 248 220 325 334 319 300 189 230 197 210 276 251 261 289 314 329 345 335 326 311 302 297 290 285 256 247 247 242 230 227 232 232 239 245 255 255 248 247 251 251
329 352 173 111 336 345 58 44 344 331 349 238 241 269 264 295 325 50 334 328 329 330 327 314 302 292 290 287 272 238 235 229 222 225 235 236 244 249 251 247 247 246 246 238
190 335 23 62 244 240 235 175 166 261 291 303 304 257 256 90 68 324 312 313 329 330 325 318 302 293 285 278 272 240 231 224 225 227 233 239 247 247 248 243 245 244 241 240
7 257 320 295 3 79 262 222 218 242 270 265 242 283 292 319 309 296 290 314 323 328 321 314 312 304 289 260 258 245 226 225 221 225 230 244 243 248 244 243 241 241 236 238
353 294 244 310 325 297 51 290 13 15 289 276 272 283 262 297 295 328 320 329 321 326 316 309 328 328 295 259 237 235 236 225 225 229 231 237 243 244 247 235 236 237 229 227
76 142 284 352 259 285 347 340 65 129 166 220 300 248 227 271 312 296 308 320 323 321 307 305 332 329 328 254 223 211 206 208 210 219 229 237 243 243 234 228 231 230 220 214
157 199 277 261 293 265 170 200 171 133 260 243 257 276 313 185 256 296 316 328 335 322 311 290 331 331 326 291 208 209 212 214 219 228 231 237 235 229 220 220 228 220 212 202
179 304 317 332 357 358 211 222 212 220 142 226 240 265 357 268 268 243 288 341 339 330 337 27 317 323 323 307 282 250 238 231 231 226 220 219 214 213 220 223 212 202 198 196
169 195 191 220 250 243 283 278 274 245 235 250 242 277 288 303 290 255 275 331 348 325 8 5 306 300 306 327 301 266 240 237 228 209 203 209 209 212 204 195 193 199 203 186
157 228 220 246 259 272 274 278 272 259 255 241 275 234 255 261 268 280 273 315 331 316 334 299 303 324 351 351 317 270 232 213 197 192 191 198 194 186 184 191 195 183 174 177
204 257 254 286 271 263 283 282 268 259 264 279 269 274 227 288 304 307 296 310 306 300 296 309 328 0 357 2 342 289 207 189 189 195 196 189 183 180 181 183 176 168 165 168
188 213 272 270 330 307 284 262 142 330 291 265 267 244 269 278 289 306 305 299 298 298 307 324 337 351 355 355 344 292 220 206 190 190 186 174 172 167 168 172 168 167 174 172
223 185 219 288 14 263 253 161 233 237 272 251 290 270 279 285 296 301 297 278 293 319 325 331 340 344 357 355 7 122 222 247 193 178 174 163 162 166 163 162 163 165 166 172
189 135 248 260 204 285 292 192 175 182 284 254 254 279 284 292 306 291 306 305 318 315 321 325 333 338 343 349 360 256 249 245 190 173 166 162 168 165 166 161 164 167 170 175
86 84 188 290 248 252 238 170 167 143 271 216 218 258 279 299 292 286 300 314 320 320 315 320 324 328 343 351 338 275 258 219 180 163 168 166 168 166 164 168 174 172 176 179
170 197 227 231 237 275 220 157 181 76 262 194 217 255 263 266 261 287 297 302 314 314 309 313 319 315 334 351 341 277 268 185 167 168 169 162 158 159 165 172 174 174 180 183
193 182 210 220 218 273 156 152 195 217 291 267 281 275 266 275 282 284 290 307 310 306 303 301 308 311 327 352 338 231 229 159 155 159 159 159 157 156 162 165 166 176 184 188
284 180 233 215 229 243 223 235 274 284 278 288 276 289 284 280 281 284 293 305 298 299 299 290 299 309 322 348 311 245 199 190 165 165 163 157 154 161 167 179 178 181 186 186
306 320 250 344 284 333 316 284 281 293 261 281 282 288 293 283 282 287 296 293 293 295 295 297 299 308 319 333 261 226 252 192 170 164 160 159 161 163 169 175 181 181 179 181
270 306 270 259 288 323 315 310 300 295 278 284 296 303 303 287 287 285 287 287 289 290 290 296 303 299 310 321 309 226 168 176 165 164 159 160 160 160 159 164 165 171 177 190
217 232 260 279 291 280 277 292 293 304 302 303 298 296 286 296 300 294 287 285 285 284 287 288 287 286 303 321 250 117 161 166 161 156 155 153 151 155 153 149 147 151 156 168